Location: Monrovia
(34.7865°N, 86.7139°W)
Time: 15:09:20
(UTC+00:00)

Landsat 5 - Pass Details

Date: 14 July 2020
Orbit: 529 x 654 km, 98.2° (Epoch: 12 August)

Event Time Altitude Azimuth Distance (km) Brightness Sun altitude
Exits shadow 09:30:39 - 170° (S) 2,633 6.5 -13.5°
Reaches altitude 10° 09:32:33 10° 171° (S) 1,831 5.7 -13.2°
Maximum altitude 09:36:29 76° 257° (WSW) 564 3.2 -12.6°
Drops below altitude 10° 09:40:21 10° 344° (NNW) 1,795 6.2 -12.0°
Sets 09:42:27 0° 346° (NNW) 2,682 7.2 -11.6°
